TimeAST,TemperatureF,Dew PointF,Humidity,Sea Level PressureIn,VisibilityMPH,Wind Direction,Wind SpeedMPH,Gust SpeedMPH,PrecipitationIn,Events,Conditions,WindDirDegrees,DateUTC
12:00 AM,77.0,73.4,89,29.86,6.2,SE,3.5,-,N/A,,Partly Cloudy,140,2012-11-14 04:00:00
1:00 AM,77.0,75.2,94,29.83,6.2,SSE,3.5,-,N/A,,Partly Cloudy,150,2012-11-14 05:00:00
2:00 AM,76,74,90,29.82,25,South,4.6,,,,Scattered Clouds,170,2012-11-14 06:00:00
2:00 AM,75.2,73.4,94,29.80,6.2,SSE,2.3,-,N/A,,Partly Cloudy,150,2012-11-14 06:00:00
3:00 AM,75.2,73.4,94,29.80,6.2,SE,2.3,-,N/A,,Partly Cloudy,140,2012-11-14 07:00:00
4:00 AM,75.2,73.4,94,29.77,6.2,SE,3.5,-,N/A,,Partly Cloudy,130,2012-11-14 08:00:00
5:00 AM,76,74,91,29.80,25,SSE,4.6,,,,Scattered Clouds,160,2012-11-14 09:00:00
5:00 AM,75.2,73.4,94,29.80,6.2,SE,3.5,-,N/A,,Partly Cloudy,140,2012-11-14 09:00:00
6:00 AM,75.2,73.4,94,29.80,6.2,SE,4.6,-,N/A,,Partly Cloudy,140,2012-11-14 10:00:00
7:00 AM,77.0,75.2,94,29.83,6.2,SE,3.5,-,N/A,Rain,Light Rain Showers,140,2012-11-14 11:00:00
8:00 AM,80.6,75.2,84,29.86,6.2,SE,5.8,-,N/A,,Scattered Clouds,140,2012-11-14 12:00:00
9:00 AM,82.4,75.2,79,29.89,6.2,ESE,8.1,-,N/A,,Scattered Clouds,110,2012-11-14 13:00:00
10:00 AM,84.2,75.2,74,29.89,6.2,East,11.5,-,N/A,,Scattered Clouds,100,2012-11-14 14:00:00
11:00 AM,82.4,75.2,79,29.89,6.2,East,12.7,-,N/A,,Scattered Clouds,100,2012-11-14 15:00:00
12:00 PM,84.2,75.2,74,29.86,6.2,East,11.5,-,N/A,,Scattered Clouds,90,2012-11-14 16:00:00
1:00 PM,86.0,75.2,70,29.83,6.2,East,12.7,-,N/A,,Partly Cloudy,90,2012-11-14 17:00:00
2:00 PM,86,76,66,29.81,31,East,10.4,,,,Partly Cloudy,90,2012-11-14 18:00:00
2:00 PM,86.0,75.2,70,29.80,6.2,East,10.4,-,N/A,,Scattered Clouds,90,2012-11-14 18:00:00
3:00 PM,86.0,75.2,70,29.80,6.2,East,11.5,-,N/A,,Scattered Clouds,90,2012-11-14 19:00:00
4:00 PM,84.2,73.4,70,29.77,6.2,East,11.5,-,N/A,,Partly Cloudy,100,2012-11-14 20:00:00
5:00 PM,85,74,61,29.78,31,ESE,12.7,,,,Scattered Clouds,110,2012-11-14 21:00:00
5:00 PM,86.0,73.4,66,29.77,6.2,East,9.2,-,N/A,,Partly Cloudy,100,2012-11-14 21:00:00
6:00 PM,80.6,73.4,79,29.77,6.2,East,9.2,-,N/A,,Partly Cloudy,100,2012-11-14 22:00:00
7:00 PM,80.6,75.2,84,29.80,6.2,East,11.5,-,N/A,,Partly Cloudy,80,2012-11-14 23:00:00
8:00 PM,83,75,71,29.83,31,East,11.5,,,,Scattered Clouds,90,2012-11-15 00:00:00
8:00 PM,80.6,75.2,84,29.83,6.2,East,11.5,-,N/A,,Partly Cloudy,90,2012-11-15 00:00:00
9:00 PM,80.6,75.2,84,29.86,6.2,East,10.4,-,N/A,,Partly Cloudy,90,2012-11-15 01:00:00
10:00 PM,82.4,75.2,79,29.86,6.2,East,10.4,-,N/A,,Partly Cloudy,90,2012-11-15 02:00:00
11:00 PM,79,74,82,29.87,31,ESE,9.2,,,,Scattered Clouds,120,2012-11-15 03:00:00
11:00 PM,78.8,75.2,89,29.86,6.2,ESE,9.2,-,N/A,,Partly Cloudy,120,2012-11-15 03:00:00